SCP
0 0 0 0 0 0 0 0 0 0 0 0 0 -0 0 0 0 0 0 0 0 0 0 0 0 0 0 0 0 0 0 0 0 0 0 0 -0 0 0 0 0 0 0 0
0 0 0 0 0 0 0 0 0 -0 0 0 0 0 0 0 0 0 0 0 0 0 0 0 0 0 0 0 0 0 0 0 0 0 0 0 0 0 0 0 0 0 0 -0
0 0 0 0 0 0 0 0 -0 0 0 0 0 -0 0 0 0 0 0 0 0 0 0 0 0 0 0 0 0 0 0 0 0 0 0 0 0 0 0 0 0 0 -0 0
0 0 0 0 0 0 0 0 -0 0 0 0 -0 -0 -0 0 0 0 0 0 0 0 -0 0 0 0 0 0 0 0 0 0 0 0 0 0 0 0 0 0 0 0 0 0
0 0 0 0 0 0 0 0 0 0 0 0 0 0 0 0 -0 0 0 0 0 0 -0 -0 0 0 0 0 0 0 0 0 0 0 0 0 0 0 0 0 0 0 0 -0
0 0 0 0 0 0 0 0 0 0 0 0 0 0 -0 -0 -0 0 0 0 0 0 -0 -0 -0 0 0 0 0 0 0 0 0 0 0 0 0 0 0 0 0 0 0 0
-0 0 0 0 0 0 0 0 0 0 0 -0 -0 -0 -0 -0 -0 0 0 0 0 0 -0 0 -0 -0 0 0 0 0 0 0 0 0 0 0 0 0 0 0 0 0 0 0
0 0 0 0 0 0 0 0 0 -0 0 0 -0 0 -0 0 0 -0 0 0 0 0 -0 -0 -0 -0 0 0 0 0 0 0 0 0 0 0 0 0 0 0 0 0 0 0
0 0 0 0 0 0 0 0 0 0 0 -0 -0 0 -0 -0 0 0 0 0 0 0 -0 -0 -0 0 0 0 0 0 0 0 0 0 0 0 0 0 0 0 0 0 0 0
0 0 0 0 0 0 0 0 0 0 0 -0 -0 -0 -0 -0 -0 -0 0 -0 0 0 0 -0 -0 -0 0 0 0 0 0 0 0 0 0 0 0 0 0 0 0 0 0 0
0 0 0 0 0 0 0 0 0 0 0 -0 -0 0 -0 -0 0 0 0 0 0 0 0 0 -0 -0 -0 0 0 0 0 0 0 0 0 0 0 0 0 0 0 0 0 0
0 0 0 0 0 0 0 0 0 0 0 0 0 -0 -0 -0 0 0 -0 0 -0 0 0 0 0 -0 -0 -0 0 0 0 0 0 0 0 0 0 0 0 -0 0 0 0 0
0 0 0 0 0 0 0 0 0 0 0 0 0 0 0 -0 -0 0 0 -0 0 -0 0 0 0 0 -0 -0 0 0 0 0 0 0 0 0 0 0 0 0 0 0 0 0
0 0 0 0 0 0 0 0 0 0 0 0 0 -0 0 0 0 0 0 0 0 0 0 0 -0 0 0 0 -0 0 0 0 0 0 0 0 0 0 0 0 0 0 0 0
0 0 0 0 0 0 0 0 0 0 0 0 0 -0 0 0 0 0 -0 0 0 0 -0 0 0 0 -0 -0 -0 -0 -0 0 0 0 0 0 0 0 0 0 0 0 0 0
0 0 0 0 0 0 0 0 0 0 0 0 0 0 0 0 0 0 -0 0 0 -0 0 0 -0 0 -0 -0 -0 -0 -0 -0 0 0 0 0 0 0 0 0 -0 0 0 0
0 0 0 0 0 0 0 0 0 0 0 0 0 0 0 0 0 0 0 -0 -0 0 0 0 -0 -0 0 -0 -0 0 0 -0 -0 0 0 0 0 0 0 0 0 0 0 0
-0 0 0 0 0 0 0 0 0 0 0 0 0 0 0 0 0 0 0 0 -0 0 0 0 0 0 -0 -0 0 0 0 0 0 -0 -0 0 0 0 0 0 0 0 0 0
-0 -0 0 0 0 0 0 0 0 0 0 0 0 0 0 0 0 0 0 0 0 0 -0 0 0 0 0 0 -0 -0 0 -0 -0 -0 -0 -0 0 0 0 0 0 0 0 0
-0 0 0 0 0 0 0 0 0 0 0 0 0 0 0 0 0 0 0 0 0 0 -0 -0 -0 0 0 0 0 0 0 0 0 0 -0 -0 0 0 0 0 0 0 0 0
0 0 0 0 0 0 0 0 0 0 0 0 0 0 0 0 0 0 0 0 0 0 0 0 0 -0 0 0 0 0 0 0 0 0 0 0 -0 0 0 0 0 0 0 0
0 0 0 0 0 0 0 0 0 0 0 0 0 0 0 0 0 0 0 0 0 0 0 0 0 0 -0 0 -0 0 0 0 0 0 0 0 0 0 0 0 0 0 0 -0
0 0 0 0 0 -0 -0 -0 0 0 0 0 0 0 0 0 0 0 0 0 0 0 0 0 0 0 0 -0 0 0 0 0 0 0 0 0 0 -0 -0 0 0 0 0 -0
0 0 0 0 0 0 -0 0 0 0 0 0 0 0 0 0 0 0 0 0 0 0 0 0 0 0 0 0 -0 -0 0 0 0 0 0 0 0 0 0 -0 0 0 0 -0
0 0 0 0 0 0 0 -0 -0 -0 0 0 0 0 0 0 0 0 0 0 0 0 0 0 0 0 0 0 -0 -0 0 0 0 0 0 0 0 0 0 0 0 0 -0 -0
0 0 0 0 0 0 -0 -0 -0 -0 -0 0 0 0 0 -0 0 0 0 0 0 0 0 0 0 0 0 -0 -0 -0 -0 -0 0 0 0 0 0 0 0 0 0 0 -0 -0
0 0 0 0 0 0 -0 -0 -0 -0 -0 0 -0 -0 -0 -0 -0 -0 0 0 0 0 0 0 0 0 0 0 0 -0 -0 0 -0 0 0 0 0 0 0 0 0 0 0 0
Wind_Speed_500mb
62 59 55 53 49 38 28 13 5 9 34 7 7 12 14 17 38 51 38 38 30 31 36 35 22 23 22 19 35 59 60 10 21 33 36 49 36 29 17 17 10 9 11 10
61 56 50 46 31 26 25 15 16 8 33 6 7 11 30 36 40 36 26 23 37 27 17 16 21 27 51 44 35 39 42 38 8 14 21 26 49 39 18 12 11 16 12 11
57 53 48 41 34 25 15 11 7 1 12 15 13 15 20 25 33 34 25 27 34 29 27 26 30 47 27 68 37 50 41 29 48 25 17 19 52 32 33 19 10 14 20 9
51 51 47 39 32 30 12 7 7 12 5 7 13 15 21 33 34 35 43 17 31 30 22 32 39 41 50 40 24 39 11 48 36 51 40 21 43 43 43 34 19 28 18 18
50 51 47 40 34 29 15 11 8 16 24 25 17 13 21 32 31 24 20 24 26 31 28 24 43 36 27 21 25 36 19 27 46 37 40 45 30 56 45 37 27 13 26 26
57 54 46 41 35 30 12 18 22 16 16 11 9 7 19 29 33 25 28 29 32 19 19 16 22 37 44 43 39 34 15 12 25 43 39 25 28 34 46 39 25 27 23 13
59 54 48 40 35 29 22 32 22 5 9 14 18 32 17 23 33 23 41 47 25 28 21 11 31 45 50 48 42 29 23 19 8 24 29 37 18 21 36 35 30 17 17 27
62 54 47 44 36 24 22 17 13 4 9 18 27 34 30 35 34 24 28 34 48 56 11 6 11 12 30 26 45 38 33 16 9 18 32 6 19 29 47 35 23 30 19 25
63 55 45 42 32 23 18 16 12 15 9 10 37 28 31 20 15 16 18 51 51 11 5 4 5 4 14 15 29 34 26 24 9 5 17 37 19 14 20 35 29 21 22 21
62 57 43 34 31 24 25 18 31 13 12 34 29 22 23 35 15 9 19 27 20 6 5 6 7 8 3 10 20 17 9 9 16 9 8 11 22 12 17 19 16 17 45 33
62 58 48 34 28 27 28 29 19 22 16 65 35 25 45 41 21 7 17 23 8 9 5 2 4 2 4 8 19 27 12 8 6 6 6 8 15 8 12 11 16 39 49 61
66 60 48 38 28 25 30 31 28 30 32 58 71 43 25 32 39 24 7 6 5 6 6 3 7 5 7 8 11 22 5 7 5 11 7 2 22 7 27 31 34 36 25 46
70 60 44 36 31 27 27 38 35 38 24 52 17 12 40 16 20 22 13 8 3 6 5 4 7 7 7 3 5 6 12 26 7 16 21 35 37 37 32 21 36 33 44 34
72 57 44 35 30 28 28 33 25 28 22 10 19 50 36 28 24 21 37 52 30 26 18 7 6 2 17 8 13 3 6 19 21 10 18 53 60 77 68 29 20 16 20 53
68 57 42 32 27 25 26 28 15 19 14 10 30 49 15 26 24 19 35 30 33 35 12 6 6 7 6 4 7 8 14 7 6 8 45 15 42 72 65 29 40 37 28 15
66 45 34 23 18 15 12 8 1 1 17 16 8 26 26 27 37 23 17 32 34 37 18 11 12 15 8 5 4 9 9 19 37 15 54 43 51 44 59 43 41 25 21 47
53 36 27 18 11 9 7 8 10 24 29 9 10 8 14 34 28 29 27 26 33 33 26 10 12 18 28 5 7 15 29 27 18 33 35 53 46 65 65 47 26 23 11 35
36 20 18 14 13 9 12 13 14 15 11 10 6 8 12 16 12 14 12 14 16 14 18 10 6 18 10 9 16 27 36 36 30 35 24 38 52 63 53 45 20 15 20 33
25 24 25 21 9 6 11 29 31 11 10 8 6 5 6 18 9 15 12 5 5 11 5 9 11 7 10 5 5 25 37 42 35 23 22 33 45 52 50 52 35 23 18 40
24 22 11 6 8 34 25 8 3 4 7 9 6 2 7 8 5 6 14 10 6 5 3 17 10 16 44 50 51 46 46 53 42 35 22 27 42 61 57 62 42 32 33 57
31 16 10 28 23 10 6 6 6 5 5 9 10 18 18 9 4 4 11 5 6 5 7 9 6 2 16 55 64 68 55 41 59 57 55 56 28 55 53 51 55 46 46 58
34 28 24 20 11 6 7 7 8 5 7 15 10 31 26 6 9 5 7 5 6 6 15 6 5 8 57 63 61 66 60 50 38 53 56 51 43 45 54 52 53 52 42 44
16 8 7 11 9 10 8 10 7 9 11 22 45 20 5 5 12 3 4 4 5 16 2 4 6 30 53 59 61 62 54 44 33 38 53 52 42 53 43 40 38 55 53 42
7 8 12 4 8 3 6 11 10 17 17 41 36 15 5 7 2 3 7 6 6 6 7 6 11 53 56 40 62 59 57 45 34 32 38 58 42 33 34 57 39 49 53 56
6 6 3 4 13 33 35 27 27 35 41 44 16 3 9 5 7 6 7 12 7 8 7 7 43 67 61 38 70 62 41 32 40 36 25 24 45 41 44 46 42 55 60 43
6 8 6 16 18 14 31 29 23 35 40 37 12 6 7 8 4 11 6 14 7 8 9 48 44 54 50 49 79 78 52 10 27 34 25 22 22 24 19 23 35 52 59 46
7 8 23 22 24 8 21 32 24 37 27 5 5 8 5 4 6 8 3 6 8 29 41 59 48 37 45 58 55 91 80 22 9 15 35 35 27 34 41 37 35 35 43 50
Wind_Direction_500mb
343 336 332 329 331 337 355 329 296 9 163 148 195 243 261 294 297 292 292 287 281 278 294 302 303 275 316 234 199 201 210 198 235 233 207 207 215 207 169 185 213 176 171 255
353 351 347 344 344 340 337 303 284 355 185 215 216 255 274 279 275 292 299 286 303 271 292 299 291 306 328 334 349 211 193 224 294 253 264 209 206 195 175 132 132 189 182 244
355 357 353 356 353 338 321 305 309 6 213 269 262 296 286 286 287 289 278 291 300 277 262 274 286 302 312 330 331 327 194 196 214 222 211 193 197 183 187 161 159 173 217 206
357 358 356 356 353 345 340 277 271 328 295 296 292 302 286 288 293 271 275 278 292 277 249 276 278 289 318 326 342 349 295 203 201 225 247 246 196 188 188 202 173 187 195 169
356 357 355 350 350 345 311 289 332 336 299 305 307 304 291 288 290 311 297 288 253 271 253 247 280 305 318 301 323 346 327 225 202 222 223 241 258 190 188 198 194 183 178 234
356 351 351 350 341 338 311 300 307 327 292 292 300 278 302 305 310 291 285 295 312 284 247 257 293 289 275 269 284 302 286 331 189 215 222 238 239 218 193 202 196 184 196 181
354 354 353 348 344 336 311 293 289 288 283 304 302 318 285 300 308 300 307 315 307 296 30 91 287 273 269 263 255 242 259 312 280 200 205 229 233 205 193 210 198 199 177 181
351 352 351 349 346 339 331 303 295 313 297 301 301 328 327 335 323 324 310 310 322 324 62 184 260 289 273 241 231 227 216 230 276 190 195 168 258 183 191 212 216 195 184 181
352 350 354 357 354 347 346 327 290 268 279 242 325 320 311 321 326 313 316 328 319 331 198 208 218 335 322 321 323 195 194 208 214 331 163 209 203 222 168 193 205 182 168 193
349 348 345 350 347 344 337 318 307 265 256 284 307 302 306 311 315 287 305 340 317 298 217 208 198 180 41 297 313 350 179 228 202 229 159 240 185 217 177 190 220 181 185 185
346 343 337 333 337 336 328 324 320 300 286 293 290 304 311 304 285 292 316 335 13 306 140 236 297 45 162 334 276 292 297 317 182 164 109 195 142 290 216 194 168 171 185 188
341 337 332 328 317 320 324 318 321 318 289 278 308 303 277 268 270 259 248 191 315 307 316 320 326 223 126 202 265 346 2 4 249 27 221 210 69 40 321 254 191 161 160 190
337 334 327 316 315 310 300 307 324 326 301 309 303 313 334 287 268 267 248 250 273 300 323 315 286 265 330 312 322 292 250 355 29 345 359 340 345 7 333 191 159 176 181 200
336 333 328 317 307 303 305 305 332 310 307 287 290 318 336 321 251 252 228 252 292 285 282 247 259 271 354 359 345 274 302 323 329 292 326 344 8 353 343 19 46 117 156 200
338 335 327 315 304 296 303 315 319 298 287 290 296 321 326 354 351 248 260 248 262 291 298 205 282 288 118 209 213 200 160 252 336 285 331 336 307 329 336 337 2 5 20 134
341 339 341 328 307 298 328 319 174 181 352 313 302 306 299 332 321 283 277 226 240 249 251 275 226 184 143 270 299 287 77 200 250 292 294 301 317 346 355 1 17 0 17 12
342 339 346 342 332 286 203 232 261 308 316 273 286 294 314 330 345 319 291 283 273 247 250 240 263 273 171 237 237 239 267 249 287 264 307 317 319 323 332 345 17 74 104 334
343 336 355 348 341 323 294 286 264 281 289 257 282 282 296 338 317 312 304 309 297 257 228 250 237 280 229 244 228 259 283 286 267 267 308 300 291 308 333 348 360 19 46 355
345 330 316 297 283 304 289 299 293 287 228 289 256 252 275 323 303 291 315 301 296 301 242 234 241 234 232 223 236 231 261 267 273 260 256 285 294 294 313 321 312 334 298 299
359 346 334 289 333 313 311 320 227 260 227 236 255 302 260 279 278 308 348 343 312 315 15 304 219 241 250 359 356 336 309 288 289 287 203 235 260 270 286 304 296 301 312 291
6 349 301 299 314 315 265 280 233 232 246 232 277 292 319 282 322 335 5 332 317 302 0 325 304 27 12 348 335 326 312 319 269 263 268 235 219 252 266 279 314 275 273 279
322 310 308 325 327 296 344 10 353 340 300 310 302 326 330 11 34 16 6 331 326 281 355 298 271 12 345 334 325 319 309 294 289 262 260 276 229 240 260 265 273 307 276 271
328 318 323 338 313 7 8 356 320 307 288 299 321 325 10 82 39 24 344 313 274 322 295 290 289 310 318 321 325 316 307 285 277 269 257 258 239 223 227 254 257 279 296 304
310 313 331 16 327 20 257 254 248 288 283 323 330 346 28 44 325 41 323 322 288 321 319 316 299 319 323 323 333 322 307 286 267 249 259 242 239 222 216 232 226 263 273 282
277 294 307 297 278 300 331 356 334 350 338 335 347 22 9 31 39 21 326 336 339 341 303 282 307 314 335 327 344 339 329 278 258 245 258 266 236 212 218 223 228 229 255 268
239 229 218 264 287 343 329 351 343 351 2 342 51 23 6 26 24 8 10 321 337 300 287 307 313 324 336 352 1 358 3 256 247 239 235 250 240 226 238 241 249 251 265 271
249 244 270 280 286 294 323 340 354 357 5 332 351 33 358 355 6 356 304 295 266 288 312 335 348 348 355 360 1 8 6 64 108 208 222 227 232 241 247 251 262 261 264 270
Wind_Speed_850mb
62 59 55 53 49 38 28 13 5 9 34 7 7 12 14 17 38 51 38 38 30 31 36 35 22 23 22 19 35 59 60 10 21 33 36 49 36 29 17 17 10 9 11 10
61 56 50 46 31 26 25 15 16 8 33 6 7 11 30 36 40 36 26 23 37 27 17 16 21 27 51 44 35 39 42 38 8 14 21 26 49 39 18 12 11 16 12 11
57 53 48 41 34 25 15 11 7 1 12 15 13 15 20 25 33 34 25 27 34 29 27 26 30 47 27 68 37 50 41 29 48 25 17 19 52 32 33 19 10 14 20 9
51 51 47 39 32 30 12 7 7 12 5 7 13 15 21 33 34 35 43 17 31 30 22 32 39 41 50 40 24 39 11 48 36 51 40 21 43 43 43 34 19 28 18 18
50 51 47 40 34 29 15 11 8 16 24 25 17 13 21 32 31 24 20 24 26 31 28 24 43 36 27 21 25 36 19 27 46 37 40 45 30 56 45 37 27 13 26 26
57 54 46 41 35 30 12 18 22 16 16 11 9 7 19 29 33 25 28 29 32 19 19 16 22 37 44 43 39 34 15 12 25 43 39 25 28 34 46 39 25 27 23 13
59 54 48 40 35 29 22 32 22 5 9 14 18 32 17 23 33 23 41 47 25 28 21 11 31 45 50 48 42 29 23 19 8 24 29 37 18 21 36 35 30 17 17 27
62 54 47 44 36 24 22 17 13 4 9 18 27 34 30 35 34 24 28 34 48 56 11 6 11 12 30 26 45 38 33 16 9 18 32 6 19 29 47 35 23 30 19 25
63 55 45 42 32 23 18 16 12 15 9 10 37 28 31 20 15 16 18 51 51 11 5 4 5 4 14 15 29 34 26 24 9 5 17 37 19 14 20 35 29 21 22 21
62 57 43 34 31 24 25 18 31 13 12 34 29 22 23 35 15 9 19 27 20 6 5 6 7 8 3 10 20 17 9 9 16 9 8 11 22 12 17 19 16 17 45 33
62 58 48 34 28 27 28 29 19 22 16 65 35 25 45 41 21 7 17 23 8 9 5 2 4 2 4 8 19 27 12 8 6 6 6 8 15 8 12 11 16 39 49 61
66 60 48 38 28 25 30 31 28 30 32 58 71 43 25 32 39 24 7 6 5 6 6 3 7 5 7 8 11 22 5 7 5 11 7 2 22 7 27 31 34 36 25 46
70 60 44 36 31 27 27 38 35 38 24 52 17 12 40 16 20 22 13 8 3 6 5 4 7 7 7 3 5 6 12 26 7 16 21 35 37 37 32 21 36 33 44 34
72 57 44 35 30 28 28 33 25 28 22 10 19 50 36 28 24 21 37 52 30 26 18 7 6 2 17 8 13 3 6 19 21 10 18 53 60 77 68 29 20 16 20 53
68 57 42 32 27 25 26 28 15 19 14 10 30 49 15 26 24 19 35 30 33 35 12 6 6 7 6 4 7 8 14 7 6 8 45 15 42 72 65 29 40 37 28 15
66 45 34 23 18 15 12 8 1 1 17 16 8 26 26 27 37 23 17 32 34 37 18 11 12 15 8 5 4 9 9 19 37 15 54 43 51 44 59 43 41 25 21 47
53 36 27 18 11 9 7 8 10 24 29 9 10 8 14 34 28 29 27 26 33 33 26 10 12 18 28 5 7 15 29 27 18 33 35 53 46 65 65 47 26 23 11 35
36 20 18 14 13 9 12 13 14 15 11 10 6 8 12 16 12 14 12 14 16 14 18 10 6 18 10 9 16 27 36 36 30 35 24 38 52 63 53 45 20 15 20 33
25 24 25 21 9 6 11 29 31 11 10 8 6 5 6 18 9 15 12 5 5 11 5 9 11 7 10 5 5 25 37 42 35 23 22 33 45 52 50 52 35 23 18 40
24 22 11 6 8 34 25 8 3 4 7 9 6 2 7 8 5 6 14 10 6 5 3 17 10 16 44 50 51 46 46 53 42 35 22 27 42 61 57 62 42 32 33 57
31 16 10 28 23 10 6 6 6 5 5 9 10 18 18 9 4 4 11 5 6 5 7 9 6 2 16 55 64 68 55 41 59 57 55 56 28 55 53 51 55 46 46 58
34 28 24 20 11 6 7 7 8 5 7 15 10 31 26 6 9 5 7 5 6 6 15 6 5 8 57 63 61 66 60 50 38 53 56 51 43 45 54 52 53 52 42 44
16 8 7 11 9 10 8 10 7 9 11 22 45 20 5 5 12 3 4 4 5 16 2 4 6 30 53 59 61 62 54 44 33 38 53 52 42 53 43 40 38 55 53 42
7 8 12 4 8 3 6 11 10 17 17 41 36 15 5 7 2 3 7 6 6 6 7 6 11 53 56 40 62 59 57 45 34 32 38 58 42 33 34 57 39 49 53 56
6 6 3 4 13 33 35 27 27 35 41 44 16 3 9 5 7 6 7 12 7 8 7 7 43 67 61 38 70 62 41 32 40 36 25 24 45 41 44 46 42 55 60 43
6 8 6 16 18 14 31 29 23 35 40 37 12 6 7 8 4 11 6 14 7 8 9 48 44 54 50 49 79 78 52 10 27 34 25 22 22 24 19 23 35 52 59 46
7 8 23 22 24 8 21 32 24 37 27 5 5 8 5 4 6 8 3 6 8 29 41 59 48 37 45 58 55 91 80 22 9 15 35 35 27 34 41 37 35 35 43 50
Wind_Direction_850mb
343 336 332 329 331 337 355 329 296 9 163 148 195 243 261 294 297 292 292 287 281 278 294 302 303 275 316 234 199 201 210 198 235 233 207 207 215 207 169 185 213 176 171 255
353 351 347 344 344 340 337 303 284 355 185 215 216 255 274 279 275 292 299 286 303 271 292 299 291 306 328 334 349 211 193 224 294 253 264 209 206 195 175 132 132 189 182 244
355 357 353 356 353 338 321 305 309 6 213 269 262 296 286 286 287 289 278 291 300 277 262 274 286 302 312 330 331 327 194 196 214 222 211 193 197 183 187 161 159 173 217 206
357 358 356 356 353 345 340 277 271 328 295 296 292 302 286 288 293 271 275 278 292 277 249 276 278 289 318 326 342 349 295 203 201 225 247 246 196 188 188 202 173 187 195 169
356 357 355 350 350 345 311 289 332 336 299 305 307 304 291 288 290 311 297 288 253 271 253 247 280 305 318 301 323 346 327 225 202 222 223 241 258 190 188 198 194 183 178 234
356 351 351 350 341 338 311 300 307 327 292 292 300 278 302 305 310 291 285 295 312 284 247 257 293 289 275 269 284 302 286 331 189 215 222 238 239 218 193 202 196 184 196 181
354 354 353 348 344 336 311 293 289 288 283 304 302 318 285 300 308 300 307 315 307 296 30 91 287 273 269 263 255 242 259 312 280 200 205 229 233 205 193 210 198 199 177 181
351 352 351 349 346 339 331 303 295 313 297 301 301 328 327 335 323 324 310 310 322 324 62 184 260 289 273 241 231 227 216 230 276 190 195 168 258 183 191 212 216 195 184 181
352 350 354 357 354 347 346 327 290 268 279 242 325 320 311 321 326 313 316 328 319 331 198 208 218 335 322 321 323 195 194 208 214 331 163 209 203 222 168 193 205 182 168 193
349 348 345 350 347 344 337 318 307 265 256 284 307 302 306 311 315 287 305 340 317 298 217 208 198 180 41 297 313 350 179 228 202 229 159 240 185 217 177 190 220 181 185 185
346 343 337 333 337 336 328 324 320 300 286 293 290 304 311 304 285 292 316 335 13 306 140 236 297 45 162 334 276 292 297 317 182 164 109 195 142 290 216 194 168 171 185 188
341 337 332 328 317 320 324 318 321 318 289 278 308 303 277 268 270 259 248 191 315 307 316 320 326 223 126 202 265 346 2 4 249 27 221 210 69 40 321 254 191 161 160 190
337 334 327 316 315 310 300 307 324 326 301 309 303 313 334 287 268 267 248 250 273 300 323 315 286 265 330 312 322 292 250 355 29 345 359 340 345 7 333 191 159 176 181 200
336 333 328 317 307 303 305 305 332 310 307 287 290 318 336 321 251 252 228 252 292 285 282 247 259 271 354 359 345 274 302 323 329 292 326 344 8 353 343 19 46 117 156 200
338 335 327 315 304 296 303 315 319 298 287 290 296 321 326 354 351 248 260 248 262 291 298 205 282 288 118 209 213 200 160 252 336 285 331 336 307 329 336 337 2 5 20 134
341 339 341 328 307 298 328 319 174 181 352 313 302 306 299 332 321 283 277 226 240 249 251 275 226 184 143 270 299 287 77 200 250 292 294 301 317 346 355 1 17 0 17 12
342 339 346 342 332 286 203 232 261 308 316 273 286 294 314 330 345 319 291 283 273 247 250 240 263 273 171 237 237 239 267 249 287 264 307 317 319 323 332 345 17 74 104 334
343 336 355 348 341 323 294 286 264 281 289 257 282 282 296 338 317 312 304 309 297 257 228 250 237 280 229 244 228 259 283 286 267 267 308 300 291 308 333 348 360 19 46 355
345 330 316 297 283 304 289 299 293 287 228 289 256 252 275 323 303 291 315 301 296 301 242 234 241 234 232 223 236 231 261 267 273 260 256 285 294 294 313 321 312 334 298 299
359 346 334 289 333 313 311 320 227 260 227 236 255 302 260 279 278 308 348 343 312 315 15 304 219 241 250 359 356 336 309 288 289 287 203 235 260 270 286 304 296 301 312 291
6 349 301 299 314 315 265 280 233 232 246 232 277 292 319 282 322 335 5 332 317 302 0 325 304 27 12 348 335 326 312 319 269 263 268 235 219 252 266 279 314 275 273 279
322 310 308 325 327 296 344 10 353 340 300 310 302 326 330 11 34 16 6 331 326 281 355 298 271 12 345 334 325 319 309 294 289 262 260 276 229 240 260 265 273 307 276 271
328 318 323 338 313 7 8 356 320 307 288 299 321 325 10 82 39 24 344 313 274 322 295 290 289 310 318 321 325 316 307 285 277 269 257 258 239 223 227 254 257 279 296 304
310 313 331 16 327 20 257 254 248 288 283 323 330 346 28 44 325 41 323 322 288 321 319 316 299 319 323 323 333 322 307 286 267 249 259 242 239 222 216 232 226 263 273 282
277 294 307 297 278 300 331 356 334 350 338 335 347 22 9 31 39 21 326 336 339 341 303 282 307 314 335 327 344 339 329 278 258 245 258 266 236 212 218 223 228 229 255 268
239 229 218 264 287 343 329 351 343 351 2 342 51 23 6 26 24 8 10 321 337 300 287 307 313 324 336 352 1 358 3 256 247 239 235 250 240 226 238 241 249 251 265 271
249 244 270 280 286 294 323 340 354 357 5 332 351 33 358 355 6 356 304 295 266 288 312 335 348 348 355 360 1 8 6 64 108 208 222 227 232 241 247 251 262 261 264 270